When you browse on this site, cookies collect data to enhance your experience and personalize the content and advertising you see.
Visit our Privacy Policy to learn more. By continuing to use the site, you agree to this use of cookies and data.
  • In Hungary
  • List of Countries
  • For 7 days
  • Water Temperature
  • Weather Map
  • News
  • Weather Widgets
  • user-avatar
    Login

    Hourly Weather Chizhaki

    Today, 23 February, Sunday

    Time Temperature Precipitation Wind Pressure Humidity
    00:00 -3°C° 0.8 mm 9 mps 734 mmHg 93%
    01:00 -1°C° 0.8 mm 8 mps 733 mmHg 91%
    02:00 -1°C° 0 mm 8 mps 733 mmHg 89%
    03:00 -1°C° 0.7 mm 7 mps 732 mmHg 91%
    04:00 -1°C° 0.7 mm 7 mps 731 mmHg 93%
    05:00 -1°C° 0.7 mm 6 mps 730 mmHg 94%
    06:00 -1°C° 0.4 mm 6 mps 730 mmHg 90%
    07:00 0°C° 0.4 mm 5 mps 730 mmHg 86%
    08:00 +1°C° 0 mm 5 mps 730 mmHg 81%
    09:00 +1°C° 0.1 mm 5 mps 730 mmHg 79%
    10:00 +1°C° 0.1 mm 5 mps 730 mmHg 76%
    11:00 +1°C° 0.1 mm 6 mps 730 mmHg 74%
    12:00 +1°C° 0.1 mm 5 mps 730 mmHg 74%
    13:00 +1°C° 0.1 mm 5 mps 730 mmHg 74%
    14:00 +1°C° 0 mm 5 mps 730 mmHg 76%
    15:00 +1°C° 0.1 mm 5 mps 730 mmHg 80%
    16:00 +1°C° 0.1 mm 5 mps 730 mmHg 84%
    17:00 0°C° 0.1 mm 5 mps 729 mmHg 88%
    18:00 0°C° 0 mm 5 mps 729 mmHg 86%
    19:00 0°C° 0 mm 5 mps 729 mmHg 84%
    20:00 0°C° 0 mm 5 mps 730 mmHg 82%
    21:00 0°C° 0 mm 5 mps 729 mmHg 83%
    22:00 -1°C° 0 mm 5 mps 729 mmHg 85%
    23:00 -1°C° 0 mm 4 mps 728 mmHg 87%

    Tomorrow, 24 February, Monday

    Time Temperature Precipitation Wind Pressure Humidity
    00:00 -1°C° 0 mm 4 mps 728 mmHg 87%
    01:00 -1°C° 0 mm 4 mps 728 mmHg 87%
    02:00 -2°C° 0 mm 4 mps 728 mmHg 87%
    03:00 -1°C° 0 mm 3 mps 728 mmHg 89%
    04:00 -1°C° 0 mm 3 mps 728 mmHg 91%
    05:00 -2°C° 0 mm 2 mps 727 mmHg 93%
    06:00 -1°C° 0 mm 2 mps 728 mmHg 91%
    07:00 -1°C° 0 mm 3 mps 728 mmHg 89%
    08:00 -1°C° 0 mm 3 mps 729 mmHg 86%
    09:00 0°C° 0 mm 3 mps 729 mmHg 87%
    10:00 0°C° 0 mm 3 mps 729 mmHg 88%
    11:00 0°C° 0 mm 3 mps 729 mmHg 89%
    12:00 +1°C° 0.1 mm 3 mps 730 mmHg 80%
    13:00 +1°C° 0.1 mm 4 mps 730 mmHg 71%
    14:00 +3°C° 0.1 mm 4 mps 731 mmHg 62%
    15:00 +1°C° 0.1 mm 4 mps 731 mmHg 66%
    16:00 0°C° 0.1 mm 4 mps 732 mmHg 70%
    17:00 -1°C° 0.1 mm 4 mps 732 mmHg 74%
    18:00 -1°C° 0 mm 3 mps 733 mmHg 74%
    19:00 -1°C° 0 mm 3 mps 734 mmHg 74%
    20:00 -2°C° 0 mm 3 mps 734 mmHg 74%
    21:00 -2°C° 0 mm 3 mps 735 mmHg 75%
    22:00 -2°C° 0 mm 3 mps 735 mmHg 75%
    23:00 -2°C° 0 mm 3 mps 736 mmHg 76%

    Day after tomorrow, 25 February, Tuesday

    Time Temperature Precipitation Wind Pressure Humidity
    00:00 -2°C° 0 mm 3 mps 736 mmHg 77%
    01:00 -4°C° 0 mm 3 mps 736 mmHg 79%
    02:00 -4°C° 0 mm 3 mps 736 mmHg 80%
    03:00 -4°C° 0 mm 3 mps 736 mmHg 81%
    04:00 -4°C° 0 mm 3 mps 736 mmHg 82%
    05:00 -3°C° 0 mm 2 mps 736 mmHg 83%
    06:00 -3°C° 0 mm 2 mps 736 mmHg 83%
    07:00 -3°C° 0 mm 2 mps 736 mmHg 82%
    08:00 -3°C° 0 mm 2 mps 736 mmHg 81%
    09:00 -2°C° 0 mm 2 mps 736 mmHg 74%
    10:00 -1°C° 0 mm 2 mps 735 mmHg 67%
    11:00 +1°C° 0 mm 2 mps 735 mmHg 60%
    12:00 0°C° 0 mm 3 mps 735 mmHg 58%
    13:00 +1°C° 0 mm 3 mps 734 mmHg 57%
    14:00 +1°C° 0 mm 3 mps 734 mmHg 55%
    15:00 +1°C° 0 mm 3 mps 733 mmHg 58%
    16:00 0°C° 0 mm 3 mps 732 mmHg 62%
    17:00 0°C° 0 mm 3 mps 732 mmHg 66%
    18:00 -2°C° 0 mm 4 mps 731 mmHg 74%
    19:00 -2°C° 0 mm 4 mps 730 mmHg 82%
    20:00 -2°C° 0 mm 5 mps 730 mmHg 90%
    21:00 -1°C° 0.4 mm 5 mps 729 mmHg 92%
    22:00 -1°C° 0.4 mm 5 mps 728 mmHg 94%
    23:00 -1°C° 0.4 mm 4 mps 727 mmHg 96%

    26 February, Wednesday

    Time Temperature Precipitation Wind Pressure Humidity
    00:00 0°C° 0.3 mm 4 mps 726 mmHg 94%
    01:00 +1°C° 0.3 mm 4 mps 726 mmHg 92%
    02:00 +1°C° 0.3 mm 5 mps 726 mmHg 90%
    03:00 +1°C° 0.1 mm 5 mps 725 mmHg 90%
    04:00 0°C° 0.1 mm 4 mps 725 mmHg 90%
    05:00 0°C° 0.1 mm 4 mps 725 mmHg 90%
    06:00 0°C° 0 mm 4 mps 725 mmHg 90%
    07:00 0°C° 0 mm 3 mps 726 mmHg 91%
    08:00 0°C° 0 mm 3 mps 726 mmHg 91%
    09:00 +1°C° 0 mm 3 mps 726 mmHg 85%
    10:00 +1°C° 0 mm 4 mps 726 mmHg 79%
    11:00 +1°C° 0 mm 4 mps 726 mmHg 74%
    12:00 +3°C° 0 mm 4 mps 726 mmHg 72%
    13:00 +3°C° 0 mm 4 mps 726 mmHg 70%
    14:00 +2°C° 0 mm 5 mps 726 mmHg 68%
    15:00 +1°C° 0 mm 4 mps 726 mmHg 71%
    16:00 +1°C° 0 mm 4 mps 726 mmHg 73%
    17:00 +1°C° 0 mm 3 mps 726 mmHg 76%
    18:00 +1°C° 0 mm 3 mps 727 mmHg 77%
    19:00 0°C° 0 mm 3 mps 727 mmHg 77%
    20:00 0°C° 0 mm 3 mps 727 mmHg 78%
    21:00 -1°C° 0 mm 4 mps 727 mmHg 78%
    22:00 -1°C° 0 mm 4 mps 727 mmHg 78%
    23:00 -1°C° 0 mm 4 mps 727 mmHg 78%

    27 February, Thursday

    Time Temperature Precipitation Wind Pressure Humidity
    00:00 -1°C° 0 mm 4 mps 728 mmHg 80%
    01:00 -2°C° 0 mm 4 mps 728 mmHg 81%
    02:00 -2°C° 0 mm 4 mps 728 mmHg 82%
    03:00 -2°C° 0 mm 4 mps 728 mmHg 82%
    04:00 -2°C° 0 mm 4 mps 729 mmHg 81%
    05:00 -2°C° 0 mm 4 mps 729 mmHg 81%
    06:00 -2°C° 0 mm 4 mps 729 mmHg 82%
    07:00 -1°C° 0 mm 3 mps 730 mmHg 83%
    08:00 -2°C° 0 mm 3 mps 730 mmHg 84%
    09:00 -1°C° 0 mm 3 mps 731 mmHg 80%
    10:00 -1°C° 0 mm 3 mps 731 mmHg 77%
    11:00 0°C° 0 mm 3 mps 731 mmHg 74%
    12:00 +1°C° 0 mm 2 mps 732 mmHg 73%
    13:00 +1°C° 0 mm 2 mps 732 mmHg 72%
    14:00 +1°C° 0 mm 2 mps 732 mmHg 71%
    15:00 +1°C° 0 mm 1 mps 732 mmHg 73%
    16:00 +1°C° 0 mm 1 mps 732 mmHg 76%
    17:00 0°C° 0 mm 1 mps 732 mmHg 79%
    18:00 0°C° 0 mm 1 mps 732 mmHg 80%
    19:00 0°C° 0 mm 1 mps 732 mmHg 80%
    20:00 -1°C° 0 mm 1 mps 732 mmHg 81%
    21:00 -3°C° 0 mm 2 mps 732 mmHg 81%
    22:00 -3°C° 0 mm 2 mps 732 mmHg 80%
    23:00 -3°C° 0 mm 2 mps 732 mmHg 80%

    28 February, Friday

    Time Temperature Precipitation Wind Pressure Humidity
    00:00 -4°C° 0 mm 2 mps 732 mmHg 79%
    01:00 -4°C° 0 mm 2 mps 732 mmHg 78%
    02:00 -4°C° 0 mm 2 mps 732 mmHg 77%
    03:00 -5°C° 0 mm 2 mps 732 mmHg 76%
    04:00 -5°C° 0 mm 2 mps 732 mmHg 75%
    05:00 -5°C° 0 mm 2 mps 732 mmHg 74%
    06:00 -5°C° 0 mm 2 mps 732 mmHg 72%
    07:00 -5°C° 0 mm 2 mps 732 mmHg 70%
    08:00 -5°C° 0 mm 2 mps 732 mmHg 68%
    09:00 -5°C° 0 mm 3 mps 732 mmHg 63%
    10:00 -4°C° 0 mm 3 mps 732 mmHg 58%
    11:00 -2°C° 0 mm 3 mps 732 mmHg 53%
    12:00 -2°C° 0 mm 3 mps 732 mmHg 51%
    13:00 -2°C° 0 mm 3 mps 732 mmHg 48%
    14:00 -2°C° 0 mm 3 mps 732 mmHg 46%
    15:00 -2°C° 0 mm 3 mps 732 mmHg 49%
    16:00 -4°C° 0 mm 3 mps 732 mmHg 52%
    17:00 -3°C° 0 mm 2 mps 732 mmHg 55%
    18:00 -3°C° 0 mm 2 mps 732 mmHg 57%
    19:00 -5°C° 0 mm 3 mps 733 mmHg 59%
    20:00 -5°C° 0 mm 3 mps 733 mmHg 61%
    21:00 -5°C° 0 mm 3 mps 733 mmHg 62%
    22:00 -5°C° 0 mm 3 mps 734 mmHg 62%
    23:00 -5°C° 0 mm 3 mps 734 mmHg 63%
    Show more